Temp
18 18 17 17 17 16 16 16 16 16 16 15 16 16 16 15 15 16 16 16 15 15 15 16 16 16 16 16 16 16 16 16 15 15 15 15 15 14 14 13 12 14 15
18 18 17 17 17 17 16 16 16 16 15 15 16 16 16 16 16 16 16 16 16 17 16 16 16 16 16 16 16 16 16 15 15 15 14 14 14 14 14 14 14 15 15
18 16 17 17 17 17 16 16 16 15 16 16 16 16 15 16 16 16 17 17 17 17 16 16 16 15 15 16 16 15 15 14 14 14 14 14 14 14 14 14 15 14 14
18 16 16 17 17 17 16 16 16 16 16 16 16 16 15 15 16 16 16 17 17 16 16 15 15 15 16 16 16 15 15 15 14 14 14 14 13 14 14 14 14 14 14
18 16 17 17 17 17 17 16 16 16 16 17 17 16 15 15 15 16 16 17 17 17 16 16 16 16 16 16 16 15 15 14 14 14 13 13 13 15 14 14 14 14 14
18 17 16 17 17 17 17 16 16 16 16 17 17 16 15 15 15 16 17 17 17 17 16 16 16 16 16 16 16 15 15 14 14 14 13 13 15 15 15 15 15 14 14
19 17 16 16 16 16 16 16 17 16 17 16 16 16 15 15 16 16 17 17 17 17 17 16 16 16 16 16 16 15 15 14 13 13 13 14 15 15 15 15 15 15 15
18 16 16 16 16 16 16 16 17 18 17 17 16 16 15 15 15 16 17 17 17 17 17 16 16 16 16 16 16 16 15 15 14 13 13 14 15 15 15 15 15 15 15
17 16 15 16 16 15 16 16 17 18 18 17 17 16 15 14 14 16 16 16 17 17 16 16 16 16 16 16 16 16 15 15 13 13 13 13 15 15 15 15 15 15 15
17 16 15 15 15 15 15 16 17 17 18 17 17 16 15 16 17 16 16 16 17 17 17 16 16 16 16 16 16 16 15 15 13 13 13 15 15 15 15 15 15 15 15
17 16 16 15 15 15 14 16 16 16 17 16 17 17 16 14 16 16 17 16 16 16 16 16 16 16 16 16 16 16 15 13 13 13 13 14 14 15 15 14 15 14 14
16 16 16 15 15 15 15 15 14 16 17 15 15 17 14 14 14 14 17 16 16 16 16 16 16 16 15 13 15 15 15 13 13 13 13 14 14 14 15 15 14 14 14
16 16 16 16 15 15 15 15 15 14 15 15 15 14 15 14 16 17 15 17 16 16 16 16 16 15 13 14 14 13 14 15 13 13 13 14 14 14 14 14 14 14 14
15 16 16 16 15 15 14 15 16 15 15 15 14 14 14 14 15 14 14 13 14 13 13 13 13 13 13 14 13 13 13 14 13 13 13 14 14 14 14 13 13 14 14
15 15 15 16 15 15 15 15 16 16 15 15 14 14 14 14 14 14 14 14 14 14 14 13 13 13 13 13 13 13 13 13 13 13 13 14 14 14 14 13 13 13 13
15 15 15 15 15 15 15 15 15 16 15 15 14 14 15 14 14 15 14 15 14 15 14 13 13 13 13 13 13 13 13 13 13 13 13 14 14 14 13 13 13 13 12
15 15 15 15 15 15 15 15 16 16 15 15 14 14 15 15 15 15 15 14 14 14 14 13 13 13 13 13 13 13 13 13 13 13 13 13 13 14 14 13 13 13 13
15 15 15 15 15 15 15 15 15 16 15 15 15 14 14 15 16 15 15 15 14 13 14 13 13 13 13 13 13 14 14 13 13 13 13 12 12 13 13 14 13 13 12
15 15 15 15 15 15 15 15 15 15 15 15 15 15 14 14 14 15 14 14 14 13 13 13 13 13 13 13 13 13 13 13 13 13 13 13 12 12 12 12 12 12 12
15 15 15 15 15 15 15 15 15 15 15 15 15 15 15 14 14 14 14 14 13 13 13 13 13 13 13 13 13 13 13 13 12 12 13 12 12 12 11 11 12 12 12
15 15 15 15 16 15 14 15 14 14 14 14 14 14 14 14 14 14 14 13 13 13 13 13 13 13 13 13 12 12 13 13 13 13 12 12 12 12 11 12 11 11 11
15 15 15 15 14 14 14 14 14 14 14 14 14 15 15 15 15 15 15 14 14 13 13 13 13 13 13 13 12 12 12 13 13 13 12 12 12 11 11 11 11 11 10
16 16 16 16 16 16 15 14 16 16 15 15 15 15 16 15 15 15 15 14 14 13 13 13 13 13 12 12 11 11 12 13 13 13 12 11 11 11 10 10 10 10 10
16 17 17 17 17 17 17 16 16 15 14 14 14 15 15 15 15 15 15 14 14 14 14 13 13 13 11 11 11 11 11 11 11 11 12 11 11 11 10 10 9 8 8
16 17 17 17 17 17 16 16 15 15 15 15 15 15 15 15 15 14 14 14 13 13 13 13 12 12 12 12 11 10 10 10 11 10 10 11 11 10 10 9 8 8 8
16 16 16 16 16 15 15 15 15 15 15 14 14 14 14 13 13 13 13 12 12 12 12 12 12 11 11 11 11 9 9 10 9 10 10 9 10 10 10 9 8 8 8
Height
1531 1529 1533 1536 1538 1541 1543 1545 1546 1546 1547 1547 1547 1548 1548 1548 1548 1548 1549 1550 1551 1551 1552 1553 1554 1554 1555 1555 1554 1554 1554 1554 1554 1555 1555 1555 1555 1555 1554 1553 1553 1551 1550
1530 1530 1533 1537 1540 1542 1544 1546 1547 1548 1548 1548 1549 1550 1550 1550 1550 1550 1551 1552 1552 1553 1554 1555 1556 1556 1557 1557 1556 1556 1557 1557 1557 1557 1558 1558 1558 1557 1556 1555 1555 1554 1553
1530 1531 1533 1538 1541 1543 1545 1546 1547 1548 1549 1549 1550 1551 1552 1553 1553 1553 1553 1553 1554 1554 1556 1557 1557 1558 1559 1558 1559 1559 1559 1559 1560 1560 1562 1563 1561 1560 1559 1558 1557 1556 1555
1531 1531 1534 1538 1541 1544 1546 1547 1548 1550 1550 1551 1552 1553 1554 1555 1555 1555 1555 1555 1555 1556 1557 1559 1559 1560 1561 1561 1561 1561 1562 1562 1562 1563 1565 1567 1564 1562 1561 1560 1559 1559 1557
1532 1534 1535 1538 1541 1544 1546 1548 1549 1551 1552 1553 1553 1555 1556 1557 1557 1557 1557 1557 1557 1558 1559 1561 1562 1562 1563 1563 1563 1564 1564 1565 1565 1567 1567 1566 1565 1563 1562 1562 1561 1560 1560
1534 1537 1536 1539 1542 1545 1547 1549 1550 1552 1553 1555 1556 1557 1558 1559 1559 1560 1560 1560 1560 1560 1562 1563 1564 1564 1565 1565 1565 1566 1566 1567 1567 1569 1570 1567 1565 1564 1563 1562 1562 1561 1561
1536 1536 1538 1540 1543 1546 1548 1550 1551 1552 1554 1556 1557 1558 1560 1561 1561 1562 1562 1562 1563 1564 1565 1566 1566 1567 1567 1568 1568 1569 1569 1569 1570 1570 1570 1568 1566 1565 1564 1564 1562 1561 1561
1536 1537 1539 1542 1544 1547 1549 1551 1552 1553 1555 1557 1558 1560 1561 1562 1563 1564 1564 1564 1565 1565 1566 1567 1568 1568 1569 1569 1570 1570 1570 1570 1572 1572 1571 1569 1568 1567 1565 1565 1563 1562 1562
1535 1538 1541 1543 1545 1548 1549 1552 1553 1554 1556 1558 1559 1561 1563 1564 1564 1564 1566 1566 1567 1568 1568 1569 1569 1570 1570 1570 1570 1570 1571 1571 1572 1572 1573 1570 1569 1567 1566 1565 1564 1563 1562
1537 1539 1541 1544 1546 1548 1550 1551 1553 1554 1556 1558 1560 1561 1563 1564 1565 1566 1567 1568 1568 1569 1569 1570 1571 1571 1571 1571 1571 1571 1571 1571 1573 1572 1573 1570 1569 1568 1567 1566 1565 1563 1562
1536 1540 1542 1544 1548 1550 1552 1551 1553 1555 1557 1559 1560 1562 1564 1566 1566 1567 1568 1568 1569 1569 1570 1570 1570 1571 1571 1571 1571 1571 1571 1572 1574 1573 1573 1570 1569 1568 1567 1566 1565 1564 1563
1536 1540 1542 1545 1548 1550 1553 1552 1554 1556 1558 1560 1561 1562 1566 1568 1569 1569 1569 1569 1569 1570 1570 1570 1571 1571 1571 1571 1570 1571 1571 1572 1572 1572 1571 1569 1568 1567 1566 1565 1564 1563 1562
1537 1541 1542 1545 1548 1550 1554 1553 1558 1558 1561 1563 1564 1564 1566 1566 1566 1567 1568 1569 1569 1569 1570 1570 1570 1570 1572 1571 1571 1571 1571 1570 1570 1571 1570 1568 1567 1566 1565 1564 1563 1562 1561
1537 1539 1543 1545 1548 1549 1552 1555 1558 1560 1561 1563 1563 1564 1564 1564 1565 1567 1568 1570 1569 1570 1571 1571 1573 1572 1570 1570 1570 1570 1570 1569 1569 1569 1568 1567 1566 1565 1563 1562 1561 1560 1560
1535 1537 1542 1545 1547 1549 1551 1554 1558 1560 1559 1561 1562 1562 1564 1564 1565 1566 1567 1568 1569 1570 1570 1572 1571 1571 1570 1570 1570 1569 1569 1568 1568 1567 1566 1565 1564 1563 1562 1561 1560 1558 1557
1534 1536 1540 1543 1546 1548 1550 1552 1555 1558 1559 1560 1561 1561 1561 1563 1563 1564 1565 1566 1567 1568 1569 1570 1570 1570 1569 1569 1569 1569 1568 1567 1566 1565 1564 1563 1561 1561 1560 1559 1558 1557 1555
1532 1535 1538 1541 1544 1546 1549 1551 1555 1557 1558 1559 1560 1560 1560 1561 1562 1563 1564 1565 1565 1566 1567 1568 1568 1568 1567 1567 1567 1567 1566 1565 1565 1564 1562 1560 1559 1557 1557 1556 1555 1554 1553
1531 1534 1537 1539 1542 1546 1548 1550 1552 1555 1556 1558 1559 1560 1559 1560 1561 1561 1563 1563 1564 1565 1565 1566 1566 1566 1566 1566 1566 1565 1564 1563 1561 1560 1559 1558 1556 1554 1553 1552 1552 1551 1550
1529 1532 1534 1537 1540 1544 1546 1549 1551 1553 1555 1557 1558 1559 1559 1559 1559 1559 1560 1561 1562 1563 1563 1563 1563 1564 1563 1563 1562 1562 1560 1559 1558 1557 1556 1555 1553 1552 1550 1549 1547 1546 1546
1528 1530 1532 1533 1537 1541 1544 1547 1548 1550 1552 1554 1556 1557 1558 1558 1558 1558 1558 1559 1560 1560 1560 1560 1560 1560 1560 1560 1558 1557 1556 1554 1554 1552 1551 1551 1550 1549 1547 1545 1544 1542 1541
1524 1526 1529 1531 1534 1538 1540 1544 1546 1547 1548 1550 1551 1552 1553 1554 1555 1555 1555 1556 1556 1556 1557 1557 1557 1556 1556 1555 1554 1553 1551 1551 1549 1548 1547 1548 1547 1546 1543 1542 1540 1540 1539
1522 1524 1526 1529 1531 1534 1537 1539 1543 1544 1546 1548 1548 1547 1548 1549 1550 1551 1551 1551 1552 1552 1552 1552 1552 1551 1550 1551 1550 1550 1547 1547 1546 1545 1544 1544 1544 1544 1541 1539 1538 1536 1535
1519 1520 1522 1525 1528 1530 1533 1535 1538 1540 1541 1543 1544 1544 1544 1545 1546 1546 1547 1547 1547 1547 1547 1547 1546 1546 1545 1546 1546 1547 1545 1543 1543 1541 1540 1541 1541 1540 1538 1536 1535 1533 1531
1516 1517 1519 1521 1524 1527 1529 1532 1534 1536 1538 1539 1539 1540 1540 1541 1541 1541 1542 1542 1542 1541 1541 1541 1540 1540 1540 1539 1540 1539 1540 1540 1540 1538 1538 1537 1537 1537 1536 1535 1533 1531 1528
1512 1513 1515 1518 1520 1523 1525 1528 1530 1532 1534 1535 1536 1537 1537 1536 1537 1537 1537 1537 1537 1537 1536 1536 1535 1534 1534 1534 1533 1534 1534 1535 1535 1535 1532 1533 1533 1533 1533 1533 1531 1527 1526
1507 1509 1511 1514 1517 1520 1522 1524 1526 1528 1530 1531 1532 1533 1532 1532 1532 1532 1532 1532 1531 1531 1531 1530 1530 1530 1529 1528 1528 1528 1529 1529 1528 1529 1528 1529 1529 1530 1529 1529 1526 1524 1522
Wind_Speed
16 19 19 16 13 11 7 4 4 3 4 5 7 12 10 14 11 11 10 11 14 15 14 11 10 9 9 10 12 13 14 16 16 15 14 15 17 19 20 16 12 12 13
21 20 20 16 13 10 8 6 3 4 4 6 9 14 15 15 13 12 9 8 7 8 9 8 8 9 9 11 12 14 15 17 18 18 21 18 18 19 20 17 14 15 14
21 21 20 17 14 11 8 7 5 6 8 9 12 14 13 14 13 13 11 10 9 10 10 10 11 10 10 11 13 15 16 16 21 25 20 14 15 17 18 17 16 16 16
22 22 20 18 16 12 9 7 8 10 10 11 14 14 13 12 12 13 13 13 12 13 13 12 11 11 11 12 13 15 17 17 19 17 12 11 10 11 12 14 14 15 16
21 21 20 19 17 13 10 10 10 10 10 10 14 15 15 9 10 12 13 14 14 15 13 12 11 11 11 12 13 14 16 18 20 14 11 11 5 10 9 8 10 10 12
21 19 21 19 17 14 14 14 10 7 7 11 14 15 16 8 9 11 12 14 14 14 13 12 11 11 12 12 12 13 13 16 15 9 9 8 10 11 10 8 6 4 5
21 19 21 19 17 15 14 11 7 5 9 13 14 15 15 9 8 10 11 12 12 11 11 10 10 10 10 10 11 11 10 12 9 9 8 6 10 11 10 9 9 7 4
20 18 21 19 16 16 14 9 7 10 13 13 13 13 13 8 7 8 9 10 10 10 10 9 8 8 8 8 8 8 8 8 8 6 7 7 9 10 11 11 11 10 8
18 18 18 18 16 15 12 9 8 12 12 13 12 12 10 8 4 8 6 7 7 6 7 6 6 5 5 5 5 5 5 6 9 3 5 5 9 9 10 11 12 11 9
16 19 17 16 15 15 12 10 9 13 12 11 12 12 11 7 5 6 4 3 4 3 3 3 3 3 2 2 3 3 3 4 4 4 4 6 8 8 9 10 11 12 11
19 20 18 17 15 14 9 10 9 11 12 10 9 6 7 2 3 2 3 2 1 1 1 2 1 1 1 2 3 3 3 4 3 3 3 8 8 8 7 8 9 10 11
21 20 19 18 17 14 11 9 7 8 10 8 6 6 6 6 6 8 4 4 4 4 4 4 4 4 3 4 7 5 4 5 4 5 7 9 10 10 10 8 8 9 9
18 17 17 16 17 18 13 10 8 6 7 8 9 8 7 7 7 6 4 5 6 6 6 6 5 4 4 6 6 4 7 6 4 6 8 9 10 10 11 11 10 9 9
16 19 15 16 16 15 13 12 10 9 8 7 8 8 7 5 6 5 5 5 6 5 4 6 5 7 7 7 6 7 8 8 6 7 8 11 11 11 11 11 13 11 11
17 22 16 15 15 15 14 14 11 10 10 8 8 8 7 7 5 5 6 6 6 6 6 6 6 6 6 6 7 8 8 7 8 9 10 13 12 12 12 12 12 13 13
14 15 17 17 15 16 15 14 12 10 8 9 8 7 8 7 6 7 6 6 6 6 6 6 6 6 6 7 7 8 9 9 9 11 13 14 15 14 14 14 14 13 14
14 14 14 14 15 16 15 14 12 11 10 10 9 8 7 7 6 6 6 6 6 7 7 8 8 9 9 9 10 9 10 10 11 12 14 16 17 19 17 17 16 16 16
11 14 14 13 12 14 13 14 12 11 11 10 9 8 8 7 7 7 7 7 8 8 9 9 9 10 10 10 11 11 11 13 15 14 16 16 20 22 21 21 19 19 19
13 14 14 14 13 14 13 12 11 12 11 10 9 9 9 9 10 10 9 10 10 11 11 12 11 12 12 14 14 14 17 17 16 16 17 19 19 20 22 19 22 23 21
11 13 15 16 14 13 13 12 12 11 12 11 11 11 11 11 11 13 13 13 12 13 14 14 15 15 16 16 17 18 21 20 17 19 21 17 16 16 17 17 15 17 17
13 16 15 16 17 15 15 14 14 13 13 13 14 15 15 14 14 15 16 15 15 17 17 17 18 19 19 19 18 23 21 15 19 22 14 13 13 13 14 15 18 16 15
8 12 14 15 14 15 14 15 13 12 12 11 12 14 16 18 19 20 21 21 20 20 22 22 21 22 21 18 19 20 24 20 15 17 13 11 8 11 14 15 15 15 17
12 14 16 17 18 17 18 18 19 18 17 16 17 18 18 19 21 22 23 24 24 25 25 25 26 24 24 24 24 22 13 10 11 11 11 9 10 11 14 14 18 18 17
14 18 17 19 19 19 20 21 20 18 15 15 17 18 19 20 21 22 22 24 24 24 25 24 24 23 20 24 22 23 23 23 20 15 15 11 14 17 12 9 11 15 15
19 17 20 19 19 19 19 19 19 19 19 19 18 19 20 22 23 24 24 24 25 25 25 25 25 25 24 24 22 20 24 22 24 23 19 21 18 16 15 14 16 19 22
25 15 17 19 19 17 17 17 17 16 16 16 17 18 20 21 23 22 22 21 20 21 21 21 21 22 22 21 20 19 20 17 16 22 22 21 17 19 20 20 24 22 21
Wind_Direction
155 165 163 166 161 148 148 131 114 83 67 68 83 99 88 99 99 108 110 110 104 103 102 100 91 86 76 58 50 57 70 72 75 78 71 65 65 63 56 57 77 56 65
152 163 161 163 159 152 149 142 136 106 111 108 109 117 96 95 92 94 103 115 114 110 106 93 92 87 74 62 63 73 77 77 76 74 67 65 64 54 45 47 59 59 58
150 158 156 159 155 157 163 159 144 118 111 118 122 121 106 97 88 87 93 103 106 105 109 105 98 90 77 73 77 79 81 81 80 67 63 41 50 58 46 50 57 57 55
151 156 156 157 158 167 163 154 136 122 103 118 127 126 110 96 87 83 87 93 100 108 109 105 98 89 83 86 89 84 83 82 82 76 93 71 45 49 47 43 51 46 43
155 149 164 157 162 165 155 145 139 118 102 122 131 129 117 101 87 81 86 91 99 108 110 104 100 94 90 90 94 90 92 86 74 69 78 78 47 36 37 36 54 54 49
150 159 164 165 164 163 153 144 137 123 118 132 137 134 123 127 100 86 85 89 98 108 111 111 106 101 96 95 95 98 99 87 81 82 69 22 37 42 38 37 39 36 37
150 176 170 164 166 163 156 153 141 136 142 141 142 136 126 143 108 96 91 92 92 96 98 98 95 88 84 84 84 86 90 88 77 67 56 40 42 39 38 34 28 16 357
156 166 166 168 169 163 159 154 147 140 141 139 141 142 134 152 134 120 105 105 104 106 107 108 106 98 91 89 89 85 80 75 58 52 49 21 31 32 32 31 31 27 18
171 158 168 171 173 168 162 159 152 147 140 146 140 142 132 143 146 132 118 104 105 103 105 112 114 109 99 93 85 73 65 69 84 33 57 323 13 18 20 22 24 25 23
168 172 168 172 170 174 170 161 156 158 150 143 147 154 163 174 137 137 138 116 107 114 122 122 109 92 78 58 42 31 26 44 53 11 357 341 356 360 7 11 14 14 13
181 176 174 173 173 168 170 170 159 166 167 158 157 152 138 129 125 166 176 186 232 248 258 269 299 338 358 3 354 346 350 32 310 300 311 321 333 342 355 356 360 2 6
181 174 183 171 188 164 171 171 162 161 172 163 166 175 146 177 197 188 239 241 252 264 273 281 289 291 314 335 325 329 359 290 295 276 275 309 320 327 331 340 341 345 350
180 179 187 183 185 181 177 160 177 167 170 180 177 177 181 190 232 227 264 252 255 252 271 280 285 314 268 258 277 298 285 294 284 284 278 302 308 313 316 321 322 327 331
192 171 188 185 190 196 176 166 188 185 187 190 194 190 191 192 217 206 216 233 247 256 244 245 245 254 274 287 283 283 284 295 283 277 281 299 303 303 307 310 312 318 319
197 200 184 193 189 202 193 176 193 195 199 199 201 204 202 204 205 218 226 234 236 240 235 240 258 261 272 266 268 277 281 283 283 284 291 299 299 299 300 304 307 310 312
194 202 199 197 195 203 195 194 188 202 210 202 208 211 215 206 215 221 226 235 240 250 243 248 251 265 266 273 273 272 275 279 281 284 288 289 297 298 298 296 297 300 301
197 194 201 198 204 208 202 201 200 207 207 211 208 216 214 218 223 230 221 231 245 245 250 252 260 265 269 274 276 276 276 276 275 276 284 288 289 298 296 294 293 291 290
203 196 194 195 197 201 207 206 196 209 211 212 213 219 226 229 241 245 246 246 243 250 257 260 263 266 269 270 273 274 276 279 281 279 275 277 284 292 294 295 290 284 282
199 193 200 195 195 199 204 207 206 207 214 218 222 226 236 240 247 253 251 252 252 255 258 265 264 265 268 270 273 274 272 276 274 276 276 278 282 283 290 284 285 287 282
199 203 203 211 204 204 207 212 216 220 217 223 230 237 238 242 247 255 258 258 254 259 265 264 266 262 266 272 274 272 280 285 276 273 282 278 277 280 270 284 295 301 300
213 208 207 219 221 208 210 219 222 231 239 235 234 229 235 242 246 252 260 260 264 265 263 263 267 267 271 279 278 285 300 294 289 286 282 278 278 275 283 288 295 293 293
214 215 214 209 210 211 215 220 222 231 231 234 244 248 248 254 258 262 266 267 263 264 269 273 270 270 269 267 274 285 291 293 284 266 262 266 278 276 277 291 295 295 293
239 217 214 217 215 221 219 222 231 237 245 249 254 259 261 264 266 268 269 270 271 269 269 271 272 269 271 274 272 268 282 264 296 276 285 264 271 277 288 294 299 290 293
250 230 222 224 227 232 236 240 243 247 253 249 249 261 270 270 271 272 273 274 275 275 275 275 275 275 271 272 273 271 263 268 276 282 268 262 272 290 285 313 302 300 299
247 235 230 228 229 232 233 236 240 241 245 253 261 268 271 275 274 275 275 275 274 273 273 275 277 278 275 269 267 261 272 266 264 270 267 277 278 272 272 287 284 290 302
234 234 230 233 235 233 233 232 232 237 247 258 265 269 273 275 277 277 276 275 276 276 276 277 277 276 278 278 271 263 254 256 263 264 263 266 270 271 281 280 283 289 292